Weather reports worldwide

Advertisment
Benson, United Kingdom (3658): temperature & dewpoint: 17.05.2018 02:00:00 - 23.05.2018 02:00:00 (BST)Benson, United Kingdom (3658): temperature -20cm & temperature -100cm: 17.05.2018 02:00:00 - 23.05.2018 02:00:00 (BST)Benson, United Kingdom (3658): wind speed: 17.05.2018 02:00:00 - 23.05.2018 02:00:00 (BST)Benson, United Kingdom (3658): wind direction: 17.05.2018 02:00:00 - 23.05.2018 02:00:00 (BST)Benson, United Kingdom (3658): reduced air pressure: 17.05.2018 02:00:00 - 23.05.2018 02:00:00 (BST)Benson, United Kingdom (3658): visibility: 17.05.2018 02:00:00 - 23.05.2018 02:00:00 (BST)Benson, United Kingdom (3658): precipitation: 17.05.2018 02:00:00 - 23.05.2018 02:00:00 (BST)
Date & Time tt [°C] td [°C] tt -20cm [°C] tt -100cm [°C] ff [km/h] ff [kn] dd ppp [hPa] vv [km] rr [mm]
23.05.2018 02:00:00 10,0 7,6 - - 16 9 NNE 1022,6 7 0,0
23.05.2018 01:00:00 9,9 7,9 - - 16 9 NNE 1022,3 10 0,0
23.05.2018 00:00:00 10,7 8,1 - - 9 5 N 1021,9 10 0,0
22.05.2018 23:00:00 12,1 8,3 - - 24 13 NNE 1021,0 10 0,0
22.05.2018 22:00:00 13,7 8,4 - - 22 12 NNE 1020,5 10 0,0
22.05.2018 21:00:00 15,3 7,2 - - 24 13 NNE 1019,7 10 0,0
22.05.2018 20:00:00 17,8 8,6 - - 18 10 NNE 1019,1 10 0,0
22.05.2018 19:00:00 19,4 9,1 - - 28 15 NNE 1018,2 10 0,0
22.05.2018 18:00:00 20,5 9,5 - - 26 14 N 1017,6 10 0,0
22.05.2018 17:00:00 21,1 10,3 - - 24 13 NNE 1017,4 10 0,0
22.05.2018 16:00:00 21,7 11,0 - - 24 13 NNE 1017,3 10 0,0
22.05.2018 15:00:00 20,9 11,1 - - 22 12 NNE 1017,1 10 0,0
22.05.2018 14:00:00 20,2 11,6 - - 26 14 N 1017,3 10 0,0
22.05.2018 13:00:00 19,1 11,0 - - 26 14 N 1017,2 10 0,0
22.05.2018 12:00:00 18,8 10,2 - - 22 12 N 1017,0 10 0,0
22.05.2018 11:00:00 18,8 9,8 - - 22 12 N 1016,8 10 0,0
22.05.2018 10:00:00 17,3 9,4 13,7 12,0 18 10 N 1016,8 10 0,0
22.05.2018 09:00:00 15,5 8,5 - - 21 11 NNE 1016,9 10 0,0
22.05.2018 08:00:00 13,5 9,3 - - 11 6 N 1016,8 10 0,0
22.05.2018 07:00:00 11,2 8,5 - - 8 4 N 1016,7 10 0,0
22.05.2018 06:00:00 9,6 7,8 - - 5 3 NNW 1016,2 10 0,0
22.05.2018 05:00:00 8,8 7,5 - - 8 4 N 1015,8 10 0,0
22.05.2018 04:00:00 8,2 6,9 - - 8 4 NNW 1015,8 10 0,0
22.05.2018 03:00:00 10,3 7,8 - - 8 4 NNW 1015,5 10 0,0
22.05.2018 02:00:00 11,3 8,0 - - 9 5 NW 1015,2 10 0,0
22.05.2018 01:00:00 12,9 8,3 - - 9 5 NNW 1015,3 10 0,0
22.05.2018 00:00:00 13,4 8,8 - - 9 5 NNW 1015,3 10 0,0
21.05.2018 23:00:00 13,7 9,2 - - 8 4 NNE 1015,2 10 0,0
21.05.2018 22:00:00 12,9 9,8 - - 9 5 NNE 1015,3 10 0,0
21.05.2018 21:00:00 16,3 10,1 - - 13 7 NE 1014,7 10 0,0
21.05.2018 20:00:00 18,8 9,3 - - 8 4 N 1014,5 10 0,0
21.05.2018 19:00:00 20,5 11,7 - - 13 7 NNE 1014,2 10 0,0
21.05.2018 18:00:00 21,5 11,4 - - 11 6 NNE 1014,1 10 0,0
21.05.2018 17:00:00 20,5 12,2 - - 16 9 NE 1014,2 10 0,0
21.05.2018 16:00:00 22,5 11,8 - - 18 10 NNE 1014,4 10 0,0
21.05.2018 15:00:00 22,5 11,7 - - 16 9 NNE 1014,8 10 0,0
21.05.2018 14:00:00 22,3 11,8 - - 15 8 NNE 1015,3 15 0,0
21.05.2018 13:00:00 21,3 12,0 - - 11 6 NNE 1015,7 10 0,0
21.05.2018 12:00:00 20,2 10,9 - - 16 9 NE 1016,4 10 0,0
21.05.2018 11:00:00 18,0 9,1 - - 15 8 NE 1016,8 10 0,0
21.05.2018 10:00:00 16,7 8,5 13,2 11,9 8 4 NNE 1017,3 10 0,0
21.05.2018 09:00:00 13,4 8,5 - - 9 5 NNE 1017,8 10 0,0
21.05.2018 08:00:00 10,6 8,1 - - 5 3 NW 1018,0 7 0,0
21.05.2018 07:00:00 8,1 6,6 - - 4 2 NNW 1018,4 7 0,0
21.05.2018 06:00:00 5,7 5,3 - - 5 3 NNE 1018,4 3,8 0,0
21.05.2018 05:00:00 5,6 5,2 - - 2 1 NE 1018,2 4,5 0,0
21.05.2018 04:00:00 5,1 4,7 - - 5 3 N 1018,8 4,1 0,0
21.05.2018 03:00:00 8,3 6,5 - - 5 3 NE 1019,0 5 0,0
21.05.2018 02:00:00 10,0 7,7 - - 5 3 NE 1019,3 8 0,0
21.05.2018 01:00:00 11,2 8,1 - - 5 3 WNW 1019,5 11 0,0
21.05.2018 00:00:00 12,3 8,8 - - 16 9 E 1019,5 10 0,0
20.05.2018 23:00:00 14,1 8,3 - - 18 10 E 1019,8 10 0,0
20.05.2018 22:00:00 14,6 7,7 - - 15 8 ESE 1019,7 10 0,0
20.05.2018 21:00:00 14,9 8,1 - - 11 6 E 1019,3 10 0,0
20.05.2018 20:00:00 18,9 7,6 - - 11 6 E 1018,9 23 0,0
20.05.2018 19:00:00 20,2 7,7 - - 8 4 E 1018,9 25 0,0
20.05.2018 18:00:00 20,7 7,5 - - 9 5 ESE 1019,1 25 0,0
20.05.2018 17:00:00 21,0 5,9 - - 11 6 E 1019,5 10 0,0
20.05.2018 16:00:00 21,2 7,6 - - 8 4 E 1020,1 10 0,0
20.05.2018 15:00:00 20,8 8,5 - - 9 5 SSE 1020,8 10 0,0
20.05.2018 14:00:00 20,4 9,1 - - 11 6 SE 1021,4 26 0,0
20.05.2018 13:00:00 20,3 8,1 - - 11 6 ESE 1021,8 29 0,0
20.05.2018 12:00:00 19,4 7,9 - - 5 3 SE 1022,2 10 0,0
20.05.2018 11:00:00 18,1 9,6 - - 8 4 SE 1022,6 10 0,0
20.05.2018 10:00:00 16,0 9,5 12,7 11,7 4 2 WSW 1022,9 15 0,0
20.05.2018 09:00:00 13,7 8,5 - - 5 3 S 1023,2 13 0,0
20.05.2018 08:00:00 11,8 8,6 - - 8 4 S 1023,2 10 0,0
20.05.2018 07:00:00 9,7 7,7 - - 8 4 S 1023,1 9 0,0
20.05.2018 06:00:00 6,3 5,7 - - 4 2 S 1023,2 4,2 0,0
20.05.2018 05:00:00 7,0 6,3 - - 2 1 SSW 1022,9 6 0,0
20.05.2018 04:00:00 7,9 6,5 - - 8 4 S 1022,7 8 0,0
20.05.2018 03:00:00 9,2 7,5 - - 11 6 SSE 1023,0 9 0,0
20.05.2018 02:00:00 9,7 8,2 - - 9 5 S 1023,1 9 0,0
20.05.2018 01:00:00 11,7 9,6 - - 16 9 SE 1022,9 10 0,0
20.05.2018 00:00:00 12,3 9,4 - - 9 5 S 1023,0 10 0,0
19.05.2018 23:00:00 13,0 7,6 - - 16 9 E 1022,7 10 0,0
19.05.2018 22:00:00 11,2 6,9 - - 13 7 E 1022,7 10 0,0
19.05.2018 21:00:00 13,5 8,2 - - 8 4 NNE 1022,2 10 0,0
19.05.2018 20:00:00 18,2 6,5 - - 9 5 N 1021,9 10 0,0
19.05.2018 19:00:00 19,5 6,2 - - 8 4 NNE 1021,8 30 0,0
19.05.2018 18:00:00 20,0 4,4 - - 9 5 NNW 1022,2 10 0,0
19.05.2018 17:00:00 20,1 5,5 - - 5 3 N 1022,4 27 0,0
19.05.2018 16:00:00 19,7 5,7 - - 9 5 NNW 1022,7 10 0,0
19.05.2018 15:00:00 19,3 5,0 - - 8 4 NNW 1023,2 10 0,0
19.05.2018 14:00:00 19,4 6,9 - - 5 3 N 1023,5 10 0,0
19.05.2018 13:00:00 18,3 6,6 - - 8 4 NE 1023,9 10 0,0
19.05.2018 12:00:00 17,9 7,3 - - 4 2 ENE 1024,3 10 0,0
19.05.2018 11:00:00 16,9 6,1 - - 8 4 NNE 1024,5 10 0,0
19.05.2018 10:00:00 15,3 6,7 12,4 11,7 5 3 NNE 1024,7 10 0,0
19.05.2018 09:00:00 13,1 6,1 - - 4 2 WNW 1024,8 10 0,0
19.05.2018 08:00:00 11,5 5,9 - - 2 1 SSE 1024,7 10 0,0
19.05.2018 07:00:00 6,3 4,8 - - 0 0 N 1024,3 10 0,0
19.05.2018 06:00:00 3,2 2,0 - - 0 0 N 1024,4 10 0,0
19.05.2018 05:00:00 2,4 1,7 - - 0 0 N 1024,3 12 0,0
19.05.2018 04:00:00 3,3 2,1 - - 0 0 N 1024,4 10 0,0
19.05.2018 03:00:00 4,0 2,7 - - 2 1 SSE 1024,6 10 0,0
19.05.2018 02:00:00 5,6 4,2 - - 2 1 NE 1024,5 23 0,0
19.05.2018 01:00:00 6,5 4,8 - - 4 2 ENE 1024,5 10 0,0
19.05.2018 00:00:00 7,3 4,9 - - 0 0 N 1024,6 10 0,0
18.05.2018 23:00:00 6,5 4,4 - - 2 1 E 1024,6 10 0,0
18.05.2018 22:00:00 7,9 5,8 - - 9 5 E 1024,5 10 0,0
18.05.2018 21:00:00 12,6 6,9 - - 5 3 ENE 1024,2 10 0,0
18.05.2018 20:00:00 15,4 5,9 - - 9 5 ENE 1024,1 10 0,0
18.05.2018 19:00:00 15,4 6,2 - - 9 5 NNE 1024,1 28 0,0
18.05.2018 18:00:00 16,5 5,4 - - 9 5 NE 1024,1 10 0,0
18.05.2018 17:00:00 16,4 3,7 - - 5 3 E 1024,3 30 0,0
18.05.2018 16:00:00 16,1 3,8 - - 8 4 NNE 1024,6 10 0,0
18.05.2018 15:00:00 15,5 2,6 - - 9 5 NE 1024,9 10 0,0
18.05.2018 14:00:00 15,3 2,9 - - 9 5 NNE 1025,3 10 0,0
18.05.2018 13:00:00 14,6 4,4 - - 9 5 NE 1025,6 10 0,0
18.05.2018 12:00:00 13,3 3,3 - - 8 4 NNE 1026,0 10 0,0
18.05.2018 11:00:00 11,9 3,5 - - 8 4 NNE 1026,4 10 0,0
18.05.2018 10:00:00 10,9 5,0 12,2 11,7 8 4 NE 1026,8 10 0,0
18.05.2018 09:00:00 9,7 5,1 - - 8 4 N 1027,1 10 0,0
18.05.2018 08:00:00 7,2 4,2 - - 4 2 NNE 1027,2 10 0,0
18.05.2018 07:00:00 3,2 1,8 - - 2 1 SSW 1027,2 10 0,0
18.05.2018 06:00:00 0,7 0,2 - - 2 1 NE 1027,1 10 0,0
18.05.2018 05:00:00 -0,6 -1,5 - - 0 0 N 1027,0 10 0,0
18.05.2018 04:00:00 0,6 -0,2 - - 2 1 N 1027,1 10 0,0
18.05.2018 03:00:00 0,5 -0,7 - - 4 2 ENE 1027,0 10 0,0
18.05.2018 02:00:00 3,5 2,1 - - 2 1 ENE 1027,3 10 0,0
18.05.2018 01:00:00 3,3 2,3 - - 8 4 NNE 1027,4 10 0,0
18.05.2018 00:00:00 5,7 3,1 - - 5 3 NNE 1027,3 10 0,0
17.05.2018 23:00:00 6,3 2,9 - - 8 4 NE 1027,4 10 0,0
17.05.2018 22:00:00 8,4 3,2 - - 16 9 NE 1027,2 10 0,0
17.05.2018 21:00:00 10,4 3,5 - - 15 8 NE 1026,9 10 0,0
17.05.2018 20:00:00 12,4 3,1 - - 16 9 NE 1026,7 10 0,0
17.05.2018 19:00:00 14,0 3,0 - - 15 8 NE 1026,5 10 0,0
17.05.2018 18:00:00 14,9 3,2 - - 21 11 NE 1026,4 10 0,0
17.05.2018 17:00:00 15,6 3,3 - - 16 9 NE 1026,5 10 0,0
17.05.2018 16:00:00 15,6 2,9 - - 18 10 NE 1026,5 10 0,0
17.05.2018 15:00:00 15,2 3,3 - - 18 10 NE 1026,8 10 0,0
17.05.2018 14:00:00 15,0 2,9 - - 16 9 NNE 1027,2 10 0,0
17.05.2018 13:00:00 14,1 3,1 - - 21 11 NE 1027,8 10 0,0
17.05.2018 12:00:00 13,7 3,8 - - 18 10 NNE 1028,0 10 0,0
17.05.2018 11:00:00 12,5 4,2 - - 18 10 NNE 1028,3 10 0,0
17.05.2018 10:00:00 11,2 3,9 12,2 11,7 22 12 NNE 1028,3 10 0,0
17.05.2018 09:00:00 9,6 4,5 - - 24 13 NNE 1028,4 10 0,0
17.05.2018 08:00:00 7,9 4,7 - - 21 11 NNE 1028,4 10 0,0
17.05.2018 07:00:00 6,3 4,1 - - 15 8 N 1028,2 10 0,0
17.05.2018 06:00:00 4,8 3,7 - - 8 4 N 1028,2 10 0,0
17.05.2018 05:00:00 5,1 4,0 - - 9 5 N 1028,1 10 0,0
17.05.2018 04:00:00 5,1 4,1 - - 8 4 N 1028,2 10 0,0
17.05.2018 03:00:00 6,0 4,2 - - 11 6 N 1028,4 10 0,0
17.05.2018 02:00:00 6,7 4,2 - - 13 7 N 1028,8 10 0,0

tt = temperature
td = dewpoint
tt -20cm = temperature -20cm
tt -100cm = temperature -100cm
ff = wind speed
dd = wind direction
ppp = reduced air pressure
vv = visibility
rr = precipitation

Next stations